• MPC Preparation (Info)

  • MPEC 2014-K78 : 2014 KM76

    The following Minor Planet Electronic Circular may be linked-to from your own Web pages, but must not otherwise be redistributed electronically.

    A form allowing access to any MPEC is at the bottom of this page.


    Read MPEC 2014-K77 Read MPEC 2014-K79


    M.P.E.C. 2014-K78                                Issued 2014 May 30, 14:05 UT
    
         The Minor Planet Electronic Circulars contain information on unusual
             minor planets and routine data on comets.  They are published
       on behalf of Commission 20 of the International Astronomical Union by the
              Minor Planet Center, Smithsonian Astrophysical Observatory,
                              Cambridge, MA 02138, U.S.A.
    
                 Prepared using the Tamkin Foundation Computer Network
    
                                  MPC@CFA.HARVARD.EDU
                URL https://www.minorplanetcenter.net/    ISSN 1523-6714
    
                                       2014 KM76
    
    Observations:
         K14K76M* C2014 05 23.26104 10 14 20.413+18 50 51.01         21.3 wLEK078F51
         K14K76M  C2014 05 23.27387 10 14 19.371+18 49 09.58         20.8 wLEK078F51
         K14K76M  C2014 05 23.28670 10 14 18.340+18 47 28.28         21.0 wLEK078F51
         K14K76M  C2014 05 23.29961 10 14 17.283+18 45 46.52         21.3 wLEK078F51
         K14K76M KC2014 05 24.17810 10 13 14.03 +16 51 47.2                oEK078291
         K14K76M KC2014 05 24.17983 10 13 13.93 +16 51 34.6                oEK078291
         K14K76M KC2014 05 24.18157 10 13 13.73 +16 51 20.6          20.7 RoEK078291
         K14K76M _C2014 05 24.25136710 13 09.155+16 42 27.91         20.5 RtEK078568
         K14K76M _C2014 05 24.25262010 13 09.059+16 42 18.22         20.5 RtEK078568
         K14K76M _C2014 05 24.25453110 13 08.914+16 42 03.57         20.5 RtEK078568
         K14K76M KC2014 05 26.16878 10 11 04.48 +12 42 28.6          20.6 RoEK078291
         K14K76M KC2014 05 26.17022 10 11 04.38 +12 42 18.0          20.5 RoEK078291
         K14K76M KC2014 05 26.17166 10 11 04.28 +12 42 07.5          20.0 RoEK078291
         K14K76M KC2014 05 30.15858 10 07 33.56 +05 03 12.8          21.0 RoEK078291
         K14K76M KC2014 05 30.16019 10 07 33.49 +05 03 02.8          20.5 RoEK078291
         K14K76M KC2014 05 30.16182 10 07 33.38 +05 02 52.2          20.9 RoEK078291
         K14K76M _C2014 05 30.26430210 07 28.721+04 51 51.64         21.3 RtEK078568
         K14K76M _C2014 05 30.26555410 07 28.655+04 51 43.44         21.3 RtEK078568
         K14K76M _C2014 05 30.26680810 07 28.590+04 51 35.32         21.2 RtEK078568
    
    Observer details:
    291 LPL/Spacewatch II.  Observers R. A. Mastaler, T. H. Bressi.  1.8-m f/2.7
        reflector + CCD.
    568 Mauna Kea.  Observers R. J. Wainscoat, L. Wells, A. Draginda.  Measurers
        M. Micheli, R. J. Wainscoat.  3.6-m Canada-France-Hawaii Telescope + CCD.
    F51 Pan-STARRS 1, Haleakala.  Observers N. Primak, A. Schultz, T. Goggia,
        M. Willman.  Measurer PS1 Science Consortium.  1.8-m Ritchey-Chretien
        + CCD.
    
    Orbital elements:
    2014 KM76                                                Earth MOID = 0.0818 AU
    Epoch 2014 May 23.0 TT = JDT 2456800.5                  MPC
    M 354.89733              (2000.0)            P               Q
    n   0.40199918     Peri.  189.08777     -0.72204800     +0.43832350
    a   1.8182458      Node    38.53603     -0.56844231     +0.06515137
    e   0.4033238      Incl.   59.22464     -0.39436027     -0.89645290
    P   2.45           H   20.1           G   0.15           U   7
    Residuals in seconds of arc
    140523 F51  0.1-  0.1-    140524 568  0.0   0.3-    140530 291  0.3+  0.4+
    140523 F51  0.0   0.4-    140524 568  0.0   0.4-    140530 291  0.1-  0.3+
    140523 F51  0.1+  0.6-    140524 568  0.0   0.3-    140530 568  0.2-  0.1-
    140523 F51  0.1-  0.6-    140526 291  0.1+  0.0     140530 568  0.2-  0.2-
    140524 291  0.1+  0.4-    140526 291  0.0   0.0     140530 568  0.2-  0.2-
    140524 291  0.5+  0.4+    140526 291  0.1-  0.0
    140524 291  0.5-  0.2-    140530 291  0.2+  0.1-
    
    Ephemeris:
    2014 KM76                a,e,i = 1.82, 0.40, 59                  q = 1.0849
    Date    TT    R. A. (2000) Decl.     Delta      r     Elong.  Phase     V
    2014 04 30    11 44 24.9 +68 48 27   0.5186  1.1462    91.7    61.4    21.2
    ...
    2014 05 15    10 28 33.8 +37 59 54   0.4466  1.1062    90.2    66.0    20.9
    ...
    2014 05 23    10 14 40.7 +19 25 17   0.4680  1.0930    87.0    67.7    21.0
    ...
    2014 05 29    10 08 29.6 +07 11 03   0.5093  1.0872    84.2    68.0    21.2
    2014 05 30    10 07 41.5 +05 20 37   0.5178  1.0865    83.7    68.0    21.2
    2014 05 31    10 06 56.7 +03 33 43   0.5268  1.0860    83.2    68.0    21.3
    ...
    2014 06 06    10 03 24.2 -05 56 08   0.5872  1.0850    80.5    67.3    21.5
    ...
    2014 06 14    10 00 31.4 -15 50 52   0.6794  1.0893    77.2    65.4    21.8
    ...
    2014 06 29    09 58 47.8 -28 48 19   0.8607  1.1141    72.3    60.4    22.2
    
    A. U. Tomatic                (C) Copyright 2014 MPC           M.P.E.C. 2014-K78
    

    Read MPEC 2014-K77 Read MPEC 2014-K79


    MPEC number:

    Enter an MPEC number in one of the following forms:

    • 1997-B01 (the full form)
    • J97B01 (the packed version of the full form)
    • B01 (the abbreviated form)